[[{"header":{"parameterUnit":"m.s-1","parameterCategory":1,"la1":30.2991,"la2":30.254,"lo1":-89.0895,"lo2":-89.0444,"dy":0.0017,"dx":0.0017,"nx":28,"ny":28,"refTime":"2023-11-02T09:00:00:Z","depth":0,"parameterNumber":2,"parameterNumberName":"U-component_of_WINDS"},"data":[0,0,0,0,0,0,0,0,0,0,0,0,0,0,0,0,0,0,0,0,0,0,0,0,0,0,0,0,0,0,0,0,0,0,0,0,0,0,0,0,0,0,0,0,0,0,0,0,0,0,0,0,0,0,0,0,0,0,-3.5795,-3.5794,0,-3.5743,-3.5742,-3.5741,-3.5586,-3.5583,-3.5579,-3.5576,-3.5527,-3.5529,-3.553,0,0,0,0,0,0,0,0,0,0,0,0,0,-3.5766,-3.5767,-3.5795,-3.5794,-3.5794,-3.5743,-3.5742,-3.5741,-3.5587,-3.5583,-3.5579,-3.5575,-3.5526,-3.5528,-3.5531,0,0,0,0,0,0,0,0,0,0,0,0,0,-3.5753,-3.5768,-3.5795,-3.571,-3.5702,-3.5743,-3.5742,-3.5741,-3.5588,-3.5583,-3.5577,-3.5573,-3.5525,-3.5528,-3.5531,-3.565,0,0,-3.5539,-3.5541,0,0,0,0,0,0,0,0,-3.5754,-3.5754,-3.5724,-3.5716,-3.5707,-3.5666,-3.5713,-3.5711,-3.5589,-3.5631,-3.5576,-3.557,-3.5577,-3.5576,-3.5577,-3.5648,-3.5646,-3.554,-3.5541,-3.5543,-3.5543,0,0,0,0,0,0,0,-3.5755,-3.5755,-3.5774,-3.5723,-3.5713,-3.5676,-3.5669,-3.5712,-3.5634,-3.5627,-3.5616,-3.5612,-3.5572,-3.5575,-3.5575,-3.5645,-3.554,-3.5542,-3.5544,-3.5545,-3.5814,-3.5819,0,0,0,0,0,0,-3.5767,-3.5757,-3.5776,-3.5773,-3.5718,-3.5681,-3.5673,-3.5684,-3.5633,-3.562,-3.5616,-3.5605,-3.5573,-3.5572,-3.5572,-3.571,-3.5542,-3.5545,-3.5547,-3.5808,-3.5815,-3.5821,0,0,0,0,0,0,-3.5767,-3.577,-3.5778,-3.5762,-3.576,-3.5687,-3.5701,-3.5686,-3.5688,-3.5624,-3.561,-3.5633,-3.5568,-3.5569,-3.5632,-3.5706,-3.5546,-3.5549,-3.5802,-3.581,-3.5818,-3.5986,0,0,0,0,0,0,-3.5767,-3.5771,-3.5815,-3.5764,-3.5761,-3.5838,-3.5706,-3.5689,-3.5693,-3.5678,-3.5636,-3.5625,-3.5564,-3.5629,-3.5635,-3.5707,-3.5551,-3.5795,-3.5806,-3.5815,-3.5974,-3.5999,-3.6021,0,0,0,0,0,-3.5766,-3.5865,-3.5818,-3.5821,-3.5814,-3.5843,-3.5841,-3.5769,-3.57,-3.5744,-3.5703,-3.5626,-3.5697,-3.5637,-3.5642,-3.5717,-3.579,-3.5802,-3.5814,-3.5963,-3.5994,-3.6021,0,0,0,0,0,0,-3.5928,-3.5857,-3.5804,-3.5888,-3.5873,-3.5816,-3.5869,-3.5804,-3.5808,-3.5794,-3.5704,-3.5696,-3.5773,-3.5751,-3.5685,-3.583,-3.5731,-3.5745,-3.5842,-3.5871,-3.5894,-3.5899,-3.5553,0,0,0,0,0,-3.5973,-3.6,-3.5937,-3.6018,-3.6013,-3.5943,-3.5953,-3.5898,-3.5879,-3.5872,-3.5835,-3.5821,-3.5839,-3.5854,-3.5867,-3.597,-3.596,-3.6024,-3.6047,-3.6067,-3.6081,-3.6135,-3.6163,-3.5861,-3.5861,-3.5861,0,0,-3.6067,-3.6031,-3.6054,-3.605,-3.6031,-3.6063,-3.5939,-3.5977,-3.6001,-3.5878,-3.5936,-3.5909,-3.5887,-3.5971,-3.6006,-3.5955,-3.6162,-3.6083,-3.6099,-3.6102,-3.615,-3.6179,-3.6205,-3.5869,-3.5868,-3.5867,0,0,-3.6255,-3.623,-3.6295,-3.6279,-3.6252,-3.6205,-3.6221,-3.6175,-3.6152,-3.6209,-3.6118,-3.6145,-3.6179,-3.6167,-3.6166,-3.6351,-3.6282,-3.6358,-3.6482,-3.6536,-3.656,-3.6581,-3.6648,-3.6673,-3.6372,-3.6372,-3.6373,0,-3.6375,-3.6419,-3.6338,-3.6383,-3.6384,-3.6273,-3.634,-3.6328,-3.6308,-3.6313,-3.6255,-3.6296,-3.6273,-3.6354,-3.6399,-3.6401,-3.6418,-3.6363,-3.6563,-3.6583,-3.6601,-3.6664,-3.669,-3.6382,-3.6381,-3.638,-3.6379,0,-3.6569,-3.6601,-3.6657,-3.664,-3.6647,-3.6703,-3.6632,-3.665,-3.6595,-3.6555,-3.6615,-3.6584,-3.659,-3.6605,-3.6552,-3.6679,-3.6648,-3.6578,-3.6477,-3.6641,-3.6699,-3.6723,-3.6396,-3.6392,-3.6389,-3.6387,0,0,-3.6857,-3.6794,-3.6816,-3.6808,-3.677,-3.6794,-3.6846,-3.6851,-3.6869,-3.6859,-3.6901,-3.6933,-3.6868,-3.6867,-3.6812,-3.6859,-3.701,-3.6783,-3.6781,-3.6828,-3.715,-3.7204,-3.7234,-3.6963,-3.6967,-3.6971,-3.7153,0,-3.7036,-3.7119,-3.7048,-3.7146,-3.7175,-3.7071,-3.7116,-3.7099,-3.7063,-3.7084,-3.7045,-3.707,-3.6981,-3.698,-3.7022,-3.6983,-3.7074,-3.6969,-3.7004,-3.7006,-3.7014,-3.7264,-3.7321,-3.7493,-3.7175,-3.7178,-3.7181,0,-3.7255,-3.7255,-3.7355,-3.7313,-3.7322,-3.7364,-3.7364,-3.7384,-3.7364,-3.7335,-3.7334,-3.7267,-3.7316,-3.7216,-3.7285,-3.7215,-3.7225,-3.7208,-3.7213,-3.7215,-3.7105,-3.7274,-3.7546,-3.7573,-3.7216,-3.7213,-3.7211,0,-3.7457,-3.7482,-3.7545,-3.7541,-3.7492,-3.7524,-3.7506,-3.748,-3.7488,-3.7489,-3.7493,-3.75,-3.7504,-3.7512,-3.7449,-3.7382,-3.7526,-3.742,-3.7505,-3.7507,-3.7541,-3.754,-3.7821,-3.7546,-3.7546,-3.7545,-3.7545,0,-3.7665,-3.7731,-3.7635,-3.7675,-3.7746,-3.7665,-3.7738,-3.7709,-3.7687,-3.772,-3.7631,-3.7664,-3.7578,-3.7603,-3.7554,-3.7619,-3.7621,-3.7601,-3.7587,-3.7609,-3.7612,-3.7616,-3.7603,-3.7552,-3.755,-3.7549,-3.7548,0,-3.7903,-3.7841,-3.7903,-3.7852,-3.7841,-3.7897,-3.7853,-3.7889,-3.7847,-3.789,-3.7896,-3.7832,-3.7856,-3.7794,-3.781,-3.7777,-3.7871,-3.7837,-3.7878,-3.7868,-3.7957,-3.795,-3.8251,-3.8288,-3.7989,-3.7991,-3.7994,0,-3.804,-3.8088,-3.8042,-3.8057,-3.8044,-3.8069,-3.8077,-3.8,-3.8012,-3.7993,-3.8031,-3.8048,-3.8058,-3.8103,-3.8059,-3.8071,-3.8038,-3.8143,-3.8039,-3.8061,-3.8042,-3.804,-3.8046,-3.8165,-3.8168,-3.8171,-3.8174,0,-3.829,-3.8258,-3.8271,-3.8276,-3.8287,-3.8287,-3.8281,-3.8299,-3.8216,-3.8235,-3.8258,-3.8266,-3.8282,-3.8302,-3.8304,-3.8286,-3.8218,-3.8207,-3.8227,-3.8251,-3.8273,-3.8264,-3.7938,-3.82,-3.8198,-3.8196,-3.8194,-3.8193,-3.8483,-3.8521,-3.8495,-3.8515,-3.8501,-3.8498,-3.8529,-3.8491,-3.8509,-3.8516,-3.8469,-3.8504,-3.8484,-3.848,-3.847,-3.8497,-3.8449,-3.8479,-3.8486,-3.8495,-3.8511,-3.8268,-3.8497,-3.8496,-3.8495,-3.8494,-3.8494,0,-3.873,-3.8708,-3.8726,-3.872,-3.8736,-3.8668,-3.8658,-3.8676,-3.8707,-3.8694,-3.8705,-3.8734,-3.8752,-3.871,-3.8722,-3.8752,-3.8721,-3.8758,-3.8756,-3.8754,-3.8551,-3.8533,-3.8783,-3.8783,-3.8783,-3.8783,-3.8783,-3.8783,-3.886,-3.8922,-3.8887,-3.8943,-3.8921,-3.8953,-3.8953,-3.8951,-3.8939,-3.8975,-3.899,-3.8961,-3.8937,-3.8947,-3.8962,-3.8949,-3.8958,-3.9007,-3.8984,-3.8796,-3.8768,-3.8741,-3.8723,-3.9009,-3.901,-3.9183,-3.9185,-3.9186]},{"header":{"parameterUnit":"m.s-1","parameterCategory":1,"la1":30.2991,"la2":30.254,"lo1":-89.0895,"lo2":-89.0444,"dy":0.0017,"dx":0.0017,"nx":28,"ny":28,"refTime":"2023-11-02T09:00:00:Z","depth":0,"parameterNumber":3,"parameterNumberName":"V-component_of_WINDS"},"data":[0,0,0,0,0,0,0,0,0,0,0,0,0,0,0,0,0,0,0,0,0,0,0,0,0,0,0,0,0,0,0,0,0,0,0,0,0,0,0,0,0,0,0,0,0,0,0,0,0,0,0,0,0,0,0,0,0,0,-1.073,-1.0731,0,-1.0826,-1.0827,-1.0828,-1.0848,-1.0847,-1.0847,-1.0846,-1.0946,-1.0949,-1.0952,0,0,0,0,0,0,0,0,0,0,0,0,0,-1.0565,-1.0568,-1.073,-1.0732,-1.0733,-1.0826,-1.0827,-1.0828,-1.0848,-1.0847,-1.0847,-1.0846,-1.0944,-1.0948,-1.0952,0,0,0,0,0,0,0,0,0,0,0,0,0,-1.0647,-1.0569,-1.073,-1.0754,-1.0757,-1.0826,-1.0827,-1.0829,-1.0849,-1.0847,-1.0846,-1.0845,-1.0943,-1.0948,-1.0953,-1.1005,0,0,-1.0968,-1.097,0,0,0,0,0,0,0,0,-1.0642,-1.0653,-1.0749,-1.0752,-1.0756,-1.0824,-1.0805,-1.0888,-1.0849,-1.0814,-1.0846,-1.0845,-1.0906,-1.0914,-1.0934,-1.101,-1.1014,-1.0968,-1.0972,-1.0974,-1.0975,0,0,0,0,0,0,0,-1.0636,-1.0649,-1.0768,-1.0751,-1.0755,-1.076,-1.077,-1.0821,-1.0865,-1.0817,-1.0818,-1.0829,-1.0908,-1.093,-1.0937,-1.1015,-1.0968,-1.0973,-1.0976,-1.0978,-1.1138,-1.114,0,0,0,0,0,0,-1.0626,-1.0644,-1.0765,-1.0771,-1.0695,-1.0764,-1.0775,-1.0803,-1.0864,-1.0873,-1.083,-1.083,-1.0922,-1.0931,-1.094,-1.1006,-1.0974,-1.0978,-1.0981,-1.1137,-1.1139,-1.114,0,0,0,0,0,0,-1.0623,-1.0637,-1.0761,-1.0708,-1.0724,-1.0768,-1.0799,-1.0806,-1.0828,-1.0874,-1.0882,-1.0845,-1.0921,-1.0933,-1.0989,-1.101,-1.0981,-1.0985,-1.1136,-1.1138,-1.1139,-1.1138,0,0,0,0,0,0,-1.0618,-1.0636,-1.0656,-1.0708,-1.0727,-1.0808,-1.08,-1.0808,-1.0836,-1.0837,-1.089,-1.0898,-1.0921,-1.0981,-1.0994,-1.1016,-1.0989,-1.1134,-1.1136,-1.1139,-1.1136,-1.1139,-1.1142,0,0,0,0,0,-1.0612,-1.0652,-1.0657,-1.0671,-1.0753,-1.0809,-1.082,-1.0846,-1.0838,-1.0859,-1.0888,-1.0896,-1.1005,-1.0987,-1.1001,-1.1025,-1.1133,-1.1136,-1.1139,-1.1135,-1.1139,-1.1142,0,0,0,0,0,0,-1.0602,-1.0659,-1.0666,-1.0723,-1.0761,-1.0812,-1.084,-1.0849,-1.089,-1.0889,-1.0919,-1.0931,-1.0985,-1.101,-1.0989,-1.1079,-1.1069,-1.1074,-1.1061,-1.1065,-1.1068,-1.1061,-1.0993,0,0,0,0,0,-1.0606,-1.0647,-1.0695,-1.0741,-1.076,-1.0796,-1.0822,-1.0838,-1.0878,-1.0895,-1.0929,-1.0968,-1.1011,-1.1039,-1.1081,-1.1139,-1.1151,-1.1162,-1.1165,-1.1168,-1.1173,-1.1206,-1.1211,-1.115,-1.115,-1.1149,0,0,-1.0616,-1.0652,-1.0676,-1.074,-1.0771,-1.0813,-1.081,-1.0854,-1.0885,-1.0902,-1.0956,-1.0982,-1.1028,-1.1085,-1.1111,-1.1108,-1.1192,-1.1171,-1.1173,-1.1177,-1.1209,-1.1215,-1.122,-1.1151,-1.1151,-1.1151,0,0,-1.0656,-1.0687,-1.0729,-1.076,-1.0807,-1.0831,-1.084,-1.089,-1.0908,-1.0963,-1.0976,-1.1013,-1.1087,-1.1119,-1.1145,-1.1194,-1.1204,-1.1207,-1.1224,-1.1255,-1.126,-1.1265,-1.1283,-1.1289,-1.1212,-1.1212,-1.1212,0,-1.0662,-1.0725,-1.075,-1.0793,-1.0821,-1.0836,-1.088,-1.0909,-1.0967,-1.0986,-1.098,-1.1072,-1.1104,-1.1169,-1.1181,-1.1201,-1.1214,-1.1202,-1.1257,-1.1262,-1.1267,-1.1285,-1.1292,-1.1212,-1.1212,-1.1212,-1.1212,0,-1.0731,-1.0774,-1.0803,-1.0858,-1.0889,-1.0932,-1.0963,-1.0991,-1.1004,-1.1028,-1.1084,-1.1122,-1.1173,-1.1189,-1.1202,-1.1255,-1.1252,-1.1251,-1.1242,-1.1272,-1.129,-1.1297,-1.1213,-1.1213,-1.1212,-1.1212,0,0,-1.0769,-1.0836,-1.0847,-1.0872,-1.0924,-1.0958,-1.1001,-1.105,-1.1073,-1.1112,-1.115,-1.1211,-1.1211,-1.124,-1.1257,-1.1284,-1.1322,-1.1281,-1.1282,-1.1288,-1.1384,-1.1385,-1.1392,-1.1327,-1.1328,-1.133,-1.138,0,-1.0816,-1.0894,-1.0917,-1.0983,-1.1023,-1.1037,-1.1075,-1.1111,-1.1135,-1.1172,-1.1198,-1.1241,-1.1237,-1.1255,-1.1282,-1.1311,-1.1342,-1.1308,-1.1364,-1.1365,-1.1353,-1.1401,-1.1403,-1.1449,-1.1387,-1.1388,-1.1389,0,-1.0882,-1.0921,-1.0991,-1.1037,-1.1055,-1.1089,-1.1135,-1.117,-1.1211,-1.1226,-1.1258,-1.1272,-1.1318,-1.1304,-1.1368,-1.1345,-1.1368,-1.1386,-1.1388,-1.1396,-1.138,-1.1412,-1.1464,-1.1472,-1.14,-1.1399,-1.1398,0,-1.0904,-1.0974,-1.1025,-1.1046,-1.1101,-1.1125,-1.1149,-1.1188,-1.1216,-1.1256,-1.1274,-1.1318,-1.1344,-1.1378,-1.1404,-1.1391,-1.1466,-1.1454,-1.148,-1.148,-1.1497,-1.1496,-1.1556,-1.151,-1.1509,-1.1509,-1.1509,0,-1.0955,-1.0997,-1.1036,-1.1068,-1.1115,-1.114,-1.1187,-1.1212,-1.1247,-1.1283,-1.1298,-1.1332,-1.1363,-1.1401,-1.1422,-1.1472,-1.1483,-1.1497,-1.1502,-1.1497,-1.1495,-1.1514,-1.1512,-1.1511,-1.1511,-1.151,-1.151,0,-1.0989,-1.1016,-1.1073,-1.112,-1.1132,-1.1165,-1.1206,-1.1237,-1.126,-1.1306,-1.1318,-1.1355,-1.14,-1.1429,-1.1487,-1.1501,-1.1556,-1.156,-1.1542,-1.1545,-1.157,-1.1568,-1.1646,-1.1658,-1.1602,-1.1602,-1.1603,0,-1.102,-1.1053,-1.1103,-1.1128,-1.1152,-1.1193,-1.1221,-1.1246,-1.1275,-1.1323,-1.1348,-1.1395,-1.1433,-1.1506,-1.1538,-1.1582,-1.1588,-1.1611,-1.1595,-1.1588,-1.159,-1.1588,-1.1592,-1.1615,-1.1615,-1.1616,-1.1616,0,-1.1074,-1.1086,-1.1125,-1.1169,-1.1201,-1.1237,-1.1273,-1.1293,-1.1325,-1.1356,-1.1402,-1.1432,-1.1491,-1.1537,-1.1584,-1.1609,-1.1618,-1.1621,-1.163,-1.1625,-1.1615,-1.1622,-1.1552,-1.162,-1.1619,-1.1619,-1.1619,-1.1619,-1.1109,-1.1139,-1.1178,-1.1221,-1.1251,-1.1283,-1.1315,-1.1341,-1.138,-1.143,-1.1442,-1.1491,-1.1531,-1.1594,-1.162,-1.1659,-1.1656,-1.1668,-1.1672,-1.1675,-1.1676,-1.1606,-1.1667,-1.1667,-1.1667,-1.1667,-1.1667,0,-1.1164,-1.119,-1.1229,-1.1278,-1.1312,-1.1316,-1.1356,-1.1384,-1.1427,-1.1462,-1.15,-1.1553,-1.1597,-1.1632,-1.1678,-1.1702,-1.1707,-1.1713,-1.1713,-1.1718,-1.1675,-1.1664,-1.1708,-1.1708,-1.1708,-1.1708,-1.1708,-1.1708,-1.1197,-1.1248,-1.1264,-1.1329,-1.1355,-1.1402,-1.1425,-1.1455,-1.1483,-1.1542,-1.1579,-1.1601,-1.1636,-1.1684,-1.1725,-1.1734,-1.1751,-1.1756,-1.1766,-1.1726,-1.1721,-1.1717,-1.1707,-1.1759,-1.1759,-1.1806,-1.1807,-1.1807]}]]